WB5OMR-10 Weather Reports


Display with metric or nautical units.
time (UTC)temp
F
wind
direction
speed
MPH
gust
MPH
rain 1hr
in
rain 24hr
in
rain mn
in
humidity
%
barometer
mb
20260505041027 74 0.0 0.0 0.00 0.00 0.00 100 1010.5
20260505040032 74 0.0 0.0 0.00 0.00 0.00 100 1010.6
20260505035028 74 0.0 0.0 0.00 0.00 0.00 100 1010.7
20260505034034 74 0.0 0.0 0.00 0.00 0.00 100 1010.7
20260505033049 74 0.0 0.0 0.00 0.00 0.00 100 1010.6
20260505032034 75 0.0 0.0 0.00 0.00 0.00 100 1010.7
20260505031029 75 0.0 0.0 0.00 0.00 0.00 100 1010.7
20260505030035 75 0.0 0.0 0.00 0.00 0.00 100 1010.7
20260505025030 75 0.0 0.0 0.00 0.00 0.00 100 1010.6
20260505024025 75 0.0 0.0 0.00 0.00 0.00 100 1010.5
20260505023031 75 0.0 0.0 0.00 0.00 0.00 100 1010.4
20260505022026 75 0.0 0.0 0.00 0.00 0.00 100 1010.4
20260505021053 76 0.0 0.0 0.00 0.00 0.00 100 1010.5
20260505020027 76 0.0 0.0 0.00 0.00 0.00 100 1010.4
20260505015053 76 0.0 0.0 0.00 0.00 0.00 100 1010.3
20260505014028 76 0.0 0.0 0.00 0.00 0.00 100 1010.2
20260505013033 76 0.0 0.0 0.00 0.00 0.00 100 1010.0
20260505012029 77 0.0 0.0 0.00 0.00 0.00 100 1009.8
20260505011034 77 0.0 0.0 0.00 0.00 0.00 100 1010.0
20260505010030 77 0.0 0.0 0.00 0.00 0.00 100 1010.0
20260505005036 77 0.0 0.0 0.00 0.00 0.00 100 1010.1
20260505004031 78 0.0 0.0 0.00 0.00 0.00 100 1010.1
20260505003028 78 0.0 0.0 0.00 0.00 0.00 100 1010.1
20260505002052 78 0.0 0.0 0.00 0.00 0.00 100 1010.0
20260505001027 79 0.0 0.0 0.00 0.00 0.00 100 1010.0
20260505000033 80 0.0 0.0 0.00 0.00 0.00 91 1010.0
20260504235028 85 0.0 0.0 0.00 0.00 0.00 78 1010.0
20260504234033 80 0.0 0.0 0.00 0.00 0.00 92 1010.1
20260504233031 80 0.0 0.0 0.00 0.00 0.00 91 1010.1
20260504232034 80 0.0 0.0 0.00 0.00 0.00 89 1010.2
20260504231029 81 0.0 0.0 0.00 0.00 0.00 90 1010.3
20260504230035 80 0.0 0.0 0.00 0.00 0.00 90 1010.5
20260504225030 80 0.0 0.0 0.00 0.00 0.00 89 1010.5
20260504224046 80 0.0 0.0 0.00 0.00 0.00 88 1010.7
20260504223031 80 0.0 0.0 0.00 0.00 0.00 88 1010.9
20260504222027 80 0.0 0.0 0.00 0.00 0.00 88 1010.8
20260504221034 80 0.0 0.0 0.00 0.00 0.00 87 1010.9
20260504220027 80 0.0 0.0 0.00 0.00 0.00 86 1011.1
20260504215033 81 0.0 0.0 0.00 0.00 0.00 82 1011.1
20260504214048 81 0.0 0.0 0.00 0.00 0.00 80 1011.3
20260504213034 82 0.0 0.0 0.00 0.00 0.00 79 1011.5
20260504212030 82 0.0 0.0 0.00 0.00 0.00 80 1011.5
20260504211035 81 0.0 0.0 0.00 0.00 0.00 80 1011.8
20260504210030 81 0.0 0.0 0.00 0.00 0.00 80 1011.9
20260504205055 81 0.0 0.0 0.00 0.00 0.00 80 1012.0
20260504204051 81 0.0 0.0 0.00 0.00 0.00 80 1012.3
20260504203026 80 0.0 0.0 0.00 0.00 0.00 79 1012.4
20260504202032 80 0.0 0.0 0.00 0.00 0.00 81 1012.7
20260504201027 80 0.0 0.0 0.00 0.00 0.00 79 1013.0
20260504200032 80 0.0 0.0 0.00 0.00 0.00 78 1013.0
20260504195027 80 0.0 0.0 0.00 0.00 0.00 80 1013.1
20260504194032 79 0.0 0.0 0.00 0.00 0.00 82 1013.3
20260504193048 79 0.0 0.0 0.00 0.00 0.00 82 1013.6
20260504192033 80 0.0 0.0 0.00 0.00 0.00 82 1013.6
20260504191027 79 0.0 0.0 0.00 0.00 0.00 82 1013.8
20260504190032 79 0.0 0.0 0.00 0.00 0.00 82 1014.0
20260504185028 79 0.0 0.0 0.00 0.00 0.00 80 1014.2
20260504184033 79 0.0 0.0 0.00 0.00 0.00 78 1014.1
20260504183029 79 0.0 0.0 0.00 0.00 0.00 76 1014.2
20260504182035 79 0.0 0.0 0.00 0.00 0.00 78 1014.3
20260504181030 78 0.0 0.0 0.00 0.00 0.00 79 1014.5
20260504180034 78 0.0 0.0 0.00 0.00 0.00 78 1014.5
20260504175030 78 0.0 0.0 0.00 0.00 0.00 80 1014.6
20260504174036 78 0.0 0.0 0.00 0.00 0.00 82 1014.7
20260504173031 78 0.0 0.0 0.00 0.00 0.00 81 1015.0
20260504172026 77 0.0 0.0 0.00 0.00 0.00 83 1015.0
20260504171031 77 0.0 0.0 0.00 0.00 0.00 84 1015.2
20260504151026 72 0.0 0.0 0.00 0.00 0.00 100 1016.2
20260504141109 69 0.0 0.0 0.00 0.00 0.00 100 1016.4
20260504081034 64 0.0 0.0 0.00 0.00 0.00 100 1016.7